Time,TemperatureF,DewpointF,PressureIn,WindDirection,WindDirectionDegrees,WindSpeedMPH,WindSpeedGustMPH,Humidity,HourlyPrecipIn,Conditions,Clouds,dailyrainin,SoftwareType,DateUTC
2013-05-29 00:00:00,50.0,-99.9,-100.00,SSW,205,5.0,-999.0,-999,-99.99,,,-99.99,,2013-05-29 07:00:00,
2013-05-29 01:00:00,47.0,-99.9,-100.00,SW,231,3.0,-999.0,-999,-99.99,,,-99.99,,2013-05-29 08:00:00,
2013-05-29 01:52:00,47.0,-99.9,-100.00,SW,231,3.0,-999.0,-999,-99.99,,,-99.99,,2013-05-29 08:52:00,
2013-05-29 02:00:00,47.0,-99.9,-100.00,South,184,2.0,-999.0,-999,-99.99,,,-99.99,,2013-05-29 09:00:00,
2013-05-29 03:00:00,47.0,-99.9,-100.00,East,96,2.0,-999.0,-999,-99.99,,,-99.99,,2013-05-29 10:00:00,
2013-05-29 04:00:00,46.0,-99.9,-100.00,SW,216,7.0,-999.0,-999,-99.99,,,-99.99,,2013-05-29 11:00:00,
2013-05-29 05:00:00,46.0,-99.9,-100.00,SW,220,7.0,-999.0,-999,-99.99,,,-99.99,,2013-05-29 12:00:00,
2013-05-29 05:52:00,46.0,-99.9,-100.00,SW,220,7.0,-999.0,-999,-99.99,,,-99.99,,2013-05-29 12:52:00,
2013-05-29 06:00:00,45.0,-99.9,-100.00,WSW,240,12.0,-999.0,-999,-99.99,,,-99.99,,2013-05-29 13:00:00,
2013-05-29 07:00:00,46.0,-99.9,-100.00,SW,231,15.0,-999.0,-999,-99.99,,,-99.99,,2013-05-29 14:00:00,
2013-05-29 07:52:00,46.0,-99.9,-100.00,SW,231,15.0,-999.0,-999,-99.99,,,-99.99,,2013-05-29 14:52:00,
2013-05-29 08:00:00,48.0,-99.9,-100.00,SW,230,17.0,-999.0,-999,-99.99,,,-99.99,,2013-05-29 15:00:00,
2013-05-29 09:00:00,50.0,-99.9,-100.00,SW,229,17.0,-999.0,-999,-99.99,,,-99.99,,2013-05-29 16:00:00,
2013-05-29 10:00:00,52.0,-99.9,-100.00,WSW,240,18.0,-999.0,-999,-99.99,,,-99.99,,2013-05-29 17:00:00,
2013-05-29 11:00:00,53.0,-99.9,-100.00,WSW,239,18.0,-999.0,-999,-99.99,,,-99.99,,2013-05-29 18:00:00,
2013-05-29 12:00:00,53.0,-99.9,-100.00,WSW,238,21.0,-999.0,-999,-99.99,,,-99.99,,2013-05-29 19:00:00,
2013-05-29 13:00:00,54.0,-99.9,-100.00,WSW,246,18.0,-999.0,-999,-99.99,,,-99.99,,2013-05-29 20:00:00,
2013-05-29 14:00:00,56.0,-99.9,-100.00,WSW,252,16.0,-999.0,-999,-99.99,,,-99.99,,2013-05-29 21:00:00,
2013-05-29 15:00:00,55.0,-99.9,-100.00,WSW,243,15.0,-999.0,-999,-99.99,,,-99.99,,2013-05-29 22:00:00,
2013-05-29 15:53:00,55.0,-99.9,-100.00,WSW,243,15.0,-999.0,-999,-99.99,,,-99.99,,2013-05-29 22:53:00,
2013-05-29 16:00:00,54.0,-99.9,-100.00,WSW,237,15.0,-999.0,-999,-99.99,,,-99.99,,2013-05-29 23:00:00,
2013-05-29 17:00:00,55.0,-99.9,-100.00,WSW,254,14.0,-999.0,-999,-99.99,,,-99.99,,2013-05-30 00:00:00,
2013-05-29 17:53:00,55.0,-99.9,-100.00,WSW,254,14.0,-999.0,-999,-99.99,,,-99.99,,2013-05-30 00:53:00,
2013-05-29 18:00:00,54.0,-99.9,-100.00,WSW,243,12.0,-999.0,-999,-99.99,,,-99.99,,2013-05-30 01:00:00,
2013-05-29 18:53:00,54.0,-99.9,-100.00,WSW,243,12.0,-999.0,-999,-99.99,,,-99.99,,2013-05-30 01:53:00,
2013-05-29 19:00:00,53.0,-99.9,-100.00,WSW,251,10.0,-999.0,-999,-99.99,,,-99.99,,2013-05-30 02:00:00,
2013-05-29 20:00:00,50.0,-99.9,-100.00,WSW,251,12.0,-999.0,-999,-99.99,,,-99.99,,2013-05-30 03:00:00,
2013-05-29 21:00:00,48.0,-99.9,-100.00,SW,215,5.0,-999.0,-999,-99.99,,,-99.99,,2013-05-30 04:00:00,
2013-05-29 22:00:00,46.0,-99.9,-100.00,SW,231,9.0,-999.0,-999,-99.99,,,-99.99,,2013-05-30 05:00:00,
2013-05-29 22:53:00,46.0,-99.9,-100.00,SW,231,9.0,-999.0,-999,-99.99,,,-99.99,,2013-05-30 05:53:00,
2013-05-29 23:00:00,45.0,-99.9,-100.00,WSW,248,6.0,-999.0,-999,-99.99,,,-99.99,,2013-05-30 06:00:00,
2013-05-29 23:52:00,45.0,-99.9,-100.00,WSW,248,6.0,-999.0,-999,-99.99,,,-99.99,,2013-05-30 06:52:00,